Temp
14 14 14 15 16 16 15 15 15 14 14 14 13 13 13 13 14 14 14 14 14 14 14 13 13 13 13 13 13 13 12 12 12 12 11 11 11 11 10 10 10 10 10
14 14 14 15 15 15 15 15 15 14 14 13 13 13 13 13 13 13 13 13 14 13 13 13 13 13 12 13 12 12 12 12 12 12 11 11 10 10 10 10 10 10 10
14 15 15 15 15 15 15 14 14 14 13 13 13 13 13 13 13 13 13 13 13 13 13 13 13 12 12 12 12 12 12 12 11 11 11 11 11 10 10 10 10 10 10
14 15 15 15 15 15 14 14 14 13 13 13 13 13 13 13 13 13 13 13 12 13 13 12 12 12 13 12 12 12 12 11 11 11 11 11 11 11 10 10 9 9 9
14 15 15 15 15 14 14 14 14 14 13 13 13 13 13 13 13 13 13 12 12 13 12 12 12 12 12 12 12 12 11 11 11 11 11 10 10 10 10 10 10 10 9
14 14 14 15 14 14 14 14 14 13 13 13 13 13 12 13 13 12 12 13 12 12 12 12 12 12 12 12 12 11 11 11 11 11 10 10 10 10 10 10 10 10 9
14 13 14 14 14 14 15 14 13 14 13 13 13 12 12 13 12 12 12 12 12 12 12 12 12 11 11 11 12 11 11 11 11 10 10 10 10 10 10 10 10 10 9
13 13 13 14 14 14 14 13 14 13 13 13 13 13 12 12 12 12 12 12 12 12 12 12 11 11 11 11 11 11 11 11 10 10 10 10 10 10 10 10 9 9 10
13 13 13 14 14 13 13 14 14 14 14 13 13 13 12 13 12 12 12 12 12 12 12 12 12 11 11 11 10 10 10 10 10 10 10 10 10 10 9 9 9 9 9
13 14 14 14 14 13 13 14 14 15 15 14 13 13 13 14 13 12 12 12 12 11 11 11 11 11 11 10 10 10 10 10 10 10 10 10 10 9 9 9 9 9 9
13 14 14 14 13 13 14 14 14 14 14 14 14 13 13 13 13 13 13 12 12 12 11 11 11 11 11 10 10 10 10 10 10 10 10 10 10 9 9 9 9 9 9
13 14 13 13 13 13 13 14 14 14 14 13 13 13 13 13 13 13 12 12 11 11 11 10 11 11 11 11 10 10 10 10 10 10 10 10 9 9 8 9 9 8 9
13 13 13 13 13 13 13 14 14 13 13 13 13 12 13 13 13 13 12 11 11 11 11 10 10 10 11 10 10 10 10 10 10 9 10 10 9 8 8 8 8 8 8
13 13 13 13 13 13 13 13 13 13 13 12 12 12 13 13 13 12 12 11 11 10 11 10 10 10 10 9 10 10 10 10 10 9 8 8 7 7 8 7 7 7 8
13 13 13 13 13 13 13 13 12 12 12 12 12 12 13 12 11 11 10 10 10 11 10 10 10 10 9 9 9 9 10 10 9 8 8 6 7 7 7 7 7 7 8
13 13 12 13 13 13 12 12 12 12 12 12 11 12 12 11 10 11 10 10 11 10 10 10 10 9 9 9 10 10 10 9 9 8 7 6 6 6 7 7 7 8 8
13 13 13 12 12 12 12 12 12 12 11 11 12 12 11 10 12 12 11 11 12 11 11 10 9 9 9 9 9 9 9 9 9 8 7 6 6 6 6 7 7 7 7
12 12 12 12 13 12 12 12 11 11 11 11 11 12 10 10 12 11 11 11 11 11 10 9 9 9 9 9 9 8 8 8 8 7 6 6 6 6 6 7 6 6 6
12 12 12 12 13 13 13 12 12 11 11 11 11 11 10 10 12 11 12 11 10 10 10 9 9 8 9 8 8 8 8 7 7 6 5 3 5 5 5 5 5 5 5
11 11 11 12 12 12 13 12 12 10 11 11 10 11 10 11 11 11 11 10 10 10 9 9 8 8 8 8 8 7 7 7 6 5 4 4 4 5 5 4 4 4 5
10 11 11 11 11 12 12 12 10 10 11 11 10 10 10 9 10 11 10 10 9 9 9 8 8 9 8 7 7 6 6 5 5 4 3 3 4 4 4 4 4 4 4
10 10 10 10 11 11 10 10 9 9 10 10 9 9 9 9 9 10 10 8 8 8 8 8 7 7 7 7 6 5 5 4 4 3 2 3 3 3 3 3 2 2 3
9 10 10 10 10 10 9 9 9 10 10 9 9 9 9 8 9 10 9 8 8 8 7 7 7 6 6 5 4 4 3 3 3 2 1 2 2 3 3 2 2 2 2
9 9 9 9 9 9 9 9 9 9 9 9 8 8 9 9 9 8 8 8 8 7 7 6 5 5 4 3 3 2 2 2 2 2 1 1 2 2 2 2 2 2 2
8 8 8 8 9 8 8 8 8 8 7 7 7 7 8 8 7 7 8 7 7 6 6 5 4 4 3 3 3 2 2 2 2 2 1 -0 1 1 1 1 2 2 1
7 7 7 7 7 7 6 7 6 7 5 6 6 6 6 6 7 7 6 6 6 6 5 4 4 3 3 2 2 1 2 2 1 -1 -0 -1 -0 0 0 1 1 1 1
Height
1540 1544 1548 1552 1555 1559 1563 1566 1567 1570 1572 1573 1575 1576 1577 1577 1578 1579 1579 1580 1580 1580 1580 1579 1578 1578 1577 1577 1576 1575 1575 1574 1573 1572 1571 1570 1569 1568 1566 1565 1564 1563 1560
1538 1542 1546 1550 1554 1558 1561 1565 1568 1569 1572 1573 1575 1576 1577 1578 1578 1579 1579 1580 1580 1580 1580 1580 1579 1578 1578 1577 1577 1576 1575 1575 1574 1573 1572 1571 1570 1569 1568 1566 1564 1564 1563
1535 1539 1544 1548 1552 1556 1560 1563 1567 1569 1571 1573 1574 1575 1576 1577 1578 1578 1579 1579 1579 1579 1579 1580 1579 1578 1578 1577 1577 1576 1576 1575 1574 1573 1572 1571 1570 1569 1568 1568 1566 1563 1563
1532 1536 1540 1545 1551 1554 1558 1561 1564 1567 1570 1572 1574 1576 1576 1576 1576 1577 1578 1578 1579 1579 1578 1578 1578 1577 1577 1576 1576 1576 1575 1574 1574 1573 1572 1571 1570 1568 1567 1566 1566 1564 1563
1527 1532 1537 1542 1548 1552 1554 1558 1561 1565 1568 1570 1572 1574 1575 1576 1576 1576 1576 1577 1578 1578 1578 1577 1577 1577 1576 1575 1575 1574 1574 1574 1573 1572 1571 1570 1569 1568 1566 1566 1565 1563 1562
1523 1528 1533 1539 1544 1549 1552 1555 1559 1562 1566 1569 1571 1573 1574 1575 1575 1575 1575 1576 1577 1576 1576 1576 1576 1575 1574 1573 1573 1572 1572 1571 1571 1570 1569 1568 1568 1566 1565 1563 1563 1562 1561
1518 1524 1529 1535 1540 1544 1548 1551 1555 1559 1562 1565 1568 1571 1571 1572 1573 1573 1574 1574 1575 1575 1574 1574 1574 1573 1572 1572 1572 1571 1570 1569 1568 1567 1567 1565 1565 1564 1564 1562 1560 1560 1560
1513 1518 1525 1530 1534 1539 1545 1548 1551 1554 1558 1561 1563 1568 1569 1571 1570 1570 1572 1572 1573 1573 1572 1572 1572 1571 1570 1570 1570 1569 1568 1567 1566 1565 1564 1563 1562 1562 1562 1561 1561 1560 1559
1505 1513 1520 1526 1530 1535 1540 1544 1547 1550 1552 1556 1560 1563 1565 1565 1566 1568 1569 1569 1570 1571 1569 1569 1569 1568 1567 1566 1567 1567 1566 1565 1564 1563 1563 1562 1562 1561 1561 1560 1560 1559 1558
1501 1508 1515 1521 1526 1531 1536 1540 1544 1547 1549 1551 1555 1558 1559 1560 1562 1565 1565 1566 1568 1568 1568 1567 1566 1566 1565 1564 1564 1564 1564 1563 1563 1563 1562 1561 1560 1559 1558 1558 1558 1557 1557
1496 1504 1510 1516 1522 1527 1533 1537 1541 1544 1546 1548 1550 1552 1556 1557 1557 1560 1562 1563 1565 1565 1565 1565 1564 1563 1563 1563 1562 1562 1563 1562 1562 1562 1561 1559 1559 1557 1556 1557 1556 1556 1557
1492 1500 1506 1512 1518 1524 1529 1534 1538 1541 1542 1545 1548 1550 1552 1553 1555 1556 1559 1561 1563 1562 1562 1561 1561 1560 1559 1559 1559 1559 1559 1560 1559 1558 1558 1556 1556 1555 1554 1555 1555 1554 1553
1486 1494 1501 1508 1514 1520 1526 1530 1535 1537 1539 1541 1543 1546 1549 1551 1552 1554 1556 1559 1560 1558 1558 1559 1559 1559 1556 1557 1557 1555 1556 1556 1556 1555 1554 1552 1552 1552 1552 1553 1552 1552 1550
1482 1490 1497 1504 1510 1516 1522 1526 1531 1534 1536 1538 1540 1542 1545 1547 1547 1551 1554 1555 1556 1555 1554 1555 1555 1556 1554 1554 1554 1554 1553 1552 1551 1549 1548 1548 1549 1549 1550 1551 1552 1551 1549
1477 1485 1492 1499 1506 1512 1517 1523 1527 1530 1532 1534 1536 1539 1540 1542 1543 1546 1552 1552 1552 1553 1553 1553 1552 1552 1551 1551 1551 1550 1549 1549 1548 1547 1545 1545 1545 1546 1547 1546 1547 1548 1544
1474 1482 1489 1495 1501 1508 1513 1518 1522 1525 1527 1529 1532 1534 1536 1538 1536 1540 1548 1548 1547 1550 1550 1549 1549 1549 1547 1546 1546 1545 1543 1542 1542 1542 1541 1540 1541 1541 1541 1541 1541 1540 1540
1471 1478 1484 1491 1497 1503 1508 1512 1516 1519 1521 1525 1527 1529 1531 1533 1531 1536 1540 1542 1540 1542 1543 1544 1543 1544 1543 1542 1542 1540 1539 1538 1537 1537 1536 1535 1533 1534 1535 1535 1536 1537 1537
1468 1476 1481 1488 1492 1498 1502 1506 1510 1513 1516 1520 1522 1521 1527 1528 1525 1533 1534 1538 1536 1536 1539 1539 1538 1538 1538 1537 1537 1536 1535 1533 1532 1530 1530 1530 1530 1530 1531 1531 1531 1533 1533
1468 1475 1480 1485 1490 1493 1499 1501 1504 1508 1511 1514 1516 1516 1521 1522 1519 1525 1528 1530 1532 1533 1534 1534 1535 1535 1533 1532 1532 1530 1529 1529 1527 1525 1524 1524 1526 1525 1526 1528 1529 1527 1529
1464 1471 1477 1483 1486 1490 1493 1495 1498 1503 1505 1507 1510 1510 1513 1515 1515 1517 1521 1524 1527 1526 1529 1528 1529 1530 1529 1527 1526 1525 1524 1523 1522 1520 1518 1519 1521 1521 1520 1524 1525 1525 1526
1460 1467 1473 1478 1481 1484 1486 1488 1493 1495 1496 1500 1503 1505 1506 1508 1508 1508 1513 1517 1519 1519 1521 1521 1521 1521 1522 1520 1519 1519 1521 1519 1517 1516 1516 1515 1516 1516 1515 1517 1519 1518 1520
1462 1467 1470 1473 1477 1478 1482 1482 1486 1486 1488 1489 1489 1492 1497 1498 1502 1503 1507 1512 1514 1514 1514 1516 1517 1516 1515 1515 1514 1512 1514 1515 1513 1511 1512 1512 1513 1511 1511 1513 1514 1517 1517
1462 1466 1468 1469 1471 1473 1475 1476 1479 1478 1480 1481 1481 1482 1485 1490 1496 1499 1503 1505 1507 1508 1508 1509 1508 1507 1508 1507 1509 1507 1509 1510 1509 1508 1509 1508 1509 1510 1508 1510 1508 1507 1512
1463 1465 1466 1468 1470 1470 1471 1472 1473 1473 1474 1474 1478 1477 1482 1488 1492 1494 1496 1499 1500 1502 1503 1502 1504 1501 1502 1503 1504 1504 1506 1505 1506 1506 1505 1506 1506 1506 1509 1508 1507 1507 1507
1465 1465 1465 1465 1467 1468 1471 1472 1472 1473 1474 1475 1476 1479 1482 1484 1488 1490 1491 1493 1495 1495 1496 1496 1498 1495 1494 1496 1497 1499 1500 1501 1501 1501 1501 1501 1499 1500 1502 1502 1504 1505 1504
1465 1466 1467 1466 1467 1467 1468 1470 1470 1471 1473 1475 1476 1476 1478 1481 1483 1486 1486 1487 1488 1488 1490 1490 1487 1490 1490 1490 1490 1494 1493 1493 1495 1496 1498 1501 1500 1498 1499 1496 1495 1499 1500
Wind_Speed
32 34 31 30 29 28 26 25 24 22 18 16 12 8 5 5 3 3 2 2 1 1 2 2 2 3 3 4 4 5 5 6 6 6 7 7 8 7 8 8 10 10 10
34 35 33 32 31 30 28 25 23 21 18 16 13 9 7 4 3 2 2 1 1 1 2 2 2 2 2 2 3 4 5 5 6 7 7 8 8 9 8 8 7 9 9
36 36 36 34 33 31 29 25 22 20 19 14 13 10 10 8 6 4 3 3 2 2 3 4 4 4 4 5 4 4 4 5 6 7 8 9 10 9 9 9 8 7 7
39 37 38 36 34 33 30 27 23 21 19 17 15 13 11 10 7 5 4 3 4 3 3 5 5 5 5 6 7 8 9 9 9 9 10 9 10 10 10 9 9 8 7
43 39 39 37 36 34 32 29 25 22 22 18 15 12 10 9 8 7 6 5 5 5 5 5 7 7 6 7 8 10 10 11 11 11 12 12 10 11 11 12 12 11 10
44 43 40 39 38 35 33 29 25 22 21 19 16 13 10 9 9 9 9 8 9 8 7 7 8 9 9 9 8 9 10 10 11 13 13 15 14 11 10 12 12 12 12
46 45 41 41 41 39 36 31 28 25 24 20 18 15 12 11 10 9 10 8 9 8 8 11 10 10 10 11 10 11 12 13 13 11 13 13 7 8 9 11 10 11 15
47 47 42 43 43 38 36 32 31 29 25 23 21 16 11 12 13 10 9 8 9 9 10 12 12 11 10 12 13 14 12 13 12 12 10 9 8 8 11 11 11 12 12
47 47 44 42 44 40 38 35 32 31 30 26 21 14 9 8 15 13 11 9 9 9 8 9 12 12 11 11 12 10 11 11 8 6 5 6 9 11 11 11 10 11 11
48 45 44 41 48 43 40 35 33 32 29 28 26 24 12 10 11 10 14 12 10 9 9 7 7 7 7 7 7 8 9 8 8 8 8 10 11 11 11 12 11 11 10
50 48 46 45 47 44 40 35 36 33 31 29 29 27 19 15 14 9 8 13 12 8 7 7 8 7 7 7 7 8 9 11 12 13 15 15 14 14 13 14 15 13 11
51 47 43 43 44 44 40 37 36 33 31 29 26 22 22 21 17 12 13 12 10 7 5 6 6 7 7 8 10 11 12 14 16 18 18 17 16 16 15 16 14 11 12
53 49 46 45 44 40 39 38 36 33 30 29 25 21 19 18 16 13 12 11 9 9 7 8 8 9 7 7 8 8 9 11 13 15 17 16 16 15 16 15 17 12 16
53 50 46 46 44 41 39 38 35 33 30 28 25 23 20 18 14 13 13 14 12 10 9 11 10 9 9 8 9 12 13 15 15 15 16 13 11 12 12 12 12 17 20
52 50 47 44 43 42 40 38 34 33 31 29 28 23 19 15 13 8 15 15 11 9 12 11 11 10 10 11 14 15 15 15 13 15 15 9 9 13 15 16 14 19 21
51 47 45 44 43 42 39 37 36 34 32 32 27 22 18 17 11 9 17 15 11 13 12 13 12 13 13 16 17 15 16 15 15 14 13 11 12 12 15 17 18 20 22
50 48 47 45 44 41 39 39 37 35 35 29 25 20 17 19 9 11 13 13 12 14 14 16 16 16 16 16 16 17 17 17 16 15 14 13 14 16 18 18 19 20 19
47 47 47 48 43 43 41 40 39 37 35 30 27 20 19 15 8 13 13 16 15 15 16 14 14 15 15 16 17 17 17 17 17 15 15 16 16 17 17 18 17 15 15
42 44 44 44 43 39 38 39 39 39 33 29 23 21 22 20 18 19 19 18 17 16 15 13 14 15 16 17 17 16 16 16 17 17 16 16 16 16 16 16 15 15 13
36 35 35 38 39 41 44 44 42 36 32 29 27 25 26 24 26 25 21 20 19 16 15 15 16 17 18 17 18 17 16 16 15 15 13 13 15 16 17 15 14 12 14
25 29 32 38 43 44 46 43 41 37 35 31 27 26 27 30 32 25 26 23 21 17 16 17 19 19 19 18 17 18 18 16 13 12 12 13 16 16 15 16 17 17 14
17 22 21 27 43 37 40 40 40 40 41 37 35 28 30 27 26 25 26 23 19 17 17 19 19 20 18 18 18 16 15 15 11 10 10 12 13 15 17 18 15 14 13
7 10 17 12 16 16 20 24 29 41 43 43 42 33 23 25 23 24 23 21 19 19 19 20 21 19 18 16 16 14 14 13 11 10 13 13 14 15 14 16 16 14 14
6 7 9 11 11 16 24 27 28 30 37 33 28 23 20 23 26 23 20 19 19 19 20 20 19 17 16 16 14 13 14 13 12 11 12 16 14 14 15 15 15 16 16
4 4 6 8 10 10 12 16 16 17 14 15 16 19 22 22 21 19 18 19 19 18 18 17 17 16 15 15 14 14 13 13 12 11 11 13 13 15 16 15 15 16 17
2 2 5 6 9 9 11 13 12 14 16 17 19 19 18 19 19 20 19 18 16 14 13 13 14 15 15 14 13 14 14 13 12 11 10 11 14 12 10 15 15 17 17
Wind_Direction
199 196 192 187 181 178 176 171 167 166 165 166 171 175 168 151 143 141 143 121 102 62 52 53 44 45 48 39 32 23 18 17 13 7 4 1 3 7 7 13 18 23 28
203 198 193 189 183 181 177 177 174 173 172 172 174 185 204 202 211 222 205 193 214 272 299 304 307 324 344 354 3 7 8 12 5 358 353 351 350 350 351 351 7 7 13
205 201 195 190 185 180 179 177 179 180 179 176 178 196 224 231 235 254 265 265 283 290 287 280 289 300 315 315 313 320 339 346 348 343 343 335 333 333 331 330 335 348 351
207 202 196 192 187 183 184 185 183 184 184 191 197 199 205 213 221 235 241 253 286 280 300 285 288 283 291 298 299 291 294 292 307 319 325 326 328 319 314 313 312 321 321
205 204 198 192 188 188 188 190 190 191 193 194 197 201 202 208 228 249 249 255 268 274 294 288 281 288 297 295 295 296 302 303 306 309 314 319 318 317 314 315 309 306 302
205 201 200 196 190 189 190 193 196 195 201 198 201 203 206 219 231 239 242 250 267 275 280 291 290 276 282 290 292 298 301 298 302 303 309 311 313 314 317 306 299 296 295
202 202 200 198 194 194 195 194 197 200 194 195 195 200 208 212 214 218 230 251 258 265 278 281 280 277 275 286 293 293 304 301 294 301 315 311 320 323 315 316 313 297 289
203 202 200 198 196 197 199 199 201 196 199 196 196 192 196 206 209 210 224 233 248 259 273 276 275 275 275 277 283 290 292 292 297 304 296 302 295 304 304 307 314 315 307
202 202 202 201 198 199 201 204 203 205 199 196 197 186 180 204 200 212 219 231 235 253 262 268 277 282 282 280 280 281 288 293 295 314 310 314 301 301 302 305 309 302 315
201 202 202 206 202 201 206 206 207 205 205 201 197 203 204 202 180 194 216 222 229 259 270 252 269 274 282 279 275 281 284 290 289 283 300 297 290 297 294 295 292 300 313
201 201 205 209 204 207 209 211 208 206 209 209 210 203 203 192 198 204 212 215 232 249 253 254 255 258 272 280 271 278 289 288 289 286 288 296 295 288 283 281 284 296 316
198 201 205 203 206 210 212 215 212 209 210 210 216 212 213 212 214 228 225 223 233 219 215 229 262 262 274 272 266 273 282 288 291 289 288 290 285 281 281 279 290 290 307
199 202 205 204 207 212 217 213 211 210 209 211 211 211 212 214 229 233 224 228 229 202 226 247 252 266 268 268 277 283 295 302 298 292 291 288 283 274 277 285 290 282 308
206 203 205 212 215 217 216 212 212 212 211 212 212 208 209 224 226 224 226 228 230 220 230 250 248 250 255 267 279 293 294 293 289 286 288 288 288 283 271 284 288 300 314
200 202 209 209 215 215 212 212 213 212 212 212 208 206 212 218 208 222 226 228 232 244 239 246 243 248 256 273 284 293 295 295 294 292 296 292 262 265 274 272 285 291 302
202 203 205 211 210 212 211 214 214 213 214 213 208 212 215 210 204 223 227 229 241 254 253 243 249 247 259 279 291 298 295 295 290 283 285 269 258 261 260 272 281 288 293
208 208 213 210 208 209 214 216 215 214 213 208 210 211 210 201 206 225 230 240 247 251 251 246 240 255 273 286 295 299 301 298 293 281 275 268 254 257 265 271 285 283 283
213 214 211 210 208 213 215 213 215 215 206 211 210 205 210 208 220 238 244 248 247 244 242 239 249 260 274 284 292 296 296 295 294 289 267 259 257 257 262 266 274 281 288
213 211 213 212 213 215 218 218 214 215 214 211 212 214 223 230 246 256 257 248 238 240 242 251 264 268 275 282 287 290 294 297 292 286 281 265 261 261 261 272 272 276 282
213 212 217 222 222 223 222 218 216 213 214 213 217 224 230 240 244 234 252 243 243 240 245 250 258 267 277 285 287 291 293 294 295 285 271 263 264 258 257 265 270 272 272
200 204 213 223 222 219 219 217 211 210 209 216 224 234 247 249 246 233 243 239 236 239 244 253 260 270 277 283 285 287 292 296 301 294 272 263 257 259 257 255 261 258 251
210 214 230 226 225 232 232 214 216 221 223 233 233 248 254 253 231 224 229 229 238 247 255 262 268 271 276 277 277 280 288 292 301 303 279 267 262 256 256 254 256 253 253
201 221 228 231 238 246 244 241 247 242 235 241 240 232 235 214 220 224 224 229 239 249 256 262 264 268 269 271 270 276 279 284 294 296 286 275 271 269 264 253 246 241 250
200 220 223 225 240 258 245 246 246 245 244 226 217 215 212 225 226 223 225 234 242 251 258 263 266 266 268 265 268 270 274 281 284 286 283 282 277 272 266 261 257 255 253
349 327 297 262 250 250 250 247 236 227 223 236 223 218 218 219 221 225 234 239 244 251 260 265 269 272 269 268 264 259 265 271 278 280 279 275 279 275 268 262 261 257 253
329 281 278 279 284 269 266 266 258 248 232 234 230 221 225 225 228 236 241 243 248 251 257 266 273 269 265 261 253 255 259 260 266 282 287 272 282 275 277 264 256 253 250